Location: Peterborough
(44.3091°N, 78.3197°W)
Time: 04:56:12
(UTC-04:00)

Tiros 1 despin weight - Pass Details

Date: 29 March 2023
Orbit: 586 x 632 km, 48.2° (Epoch: 08 June)

Event Time Altitude Azimuth Distance (km) Brightness Sun altitude
Rises 03:39:24 0° 282° (WNW) 2,843 - -32.9°
Reaches altitude 10° 03:42:36 10° 258° (WSW) 1,947 - -32.5°
Maximum altitude 03:45:00 14° 226° (SW) 1,680 - -32.2°
Drops below altitude 10° 03:47:26 10° 193° (SSW) 1,957 - -31.9°
Sets 03:50:40 0° 169° (SSE) 2,869 - -31.4°
